"Pseudo-MPEC" for SO0005b

Created 2026 May 17 0:35:08 UT using Find_Orb

Click here for an explanation of pseudo-MPECs

 
 Astrometry: 
     SO0005b*0B2026 05 11.64106416 25 41.976-34 33 15.48   ~5C15 14.87VVNEOCPE54
     SO0005b 0B2026 05 11.64261716 26 43.454-34 35 53.27   ~5C15 15.86VVNEOCPE54
     SO0005b 0B2026 05 11.64404916 27 40.224-34 38 15.97   ~5C15 14.1 VVNEOCPE54

Station data:
(E54) TransAstra at Springbrook  (S31.281736 E149.081470)  Australia/NSW.

Orbital elements:  SO0005b
   Perigee 2026 May 11.833391 +/- 34.9 TT = 20:00:04.9 (JD 2461172.333391)
Epoch 2026 May 12.0 TT = JDT 2461172.5                           AutoNEOCP
q122993.9441 +/- 3.53e+7            (J2000 equator)
H   28.09 G 0.15                    Peri.  310.618874 +/- 49
                                    Node   355.355084 +/- 80
e  35.48877111 +/- 0.238            Incl.   35.939664 +/- 4.9
From 3 observations 2026 May 11 (4.3 min); mean residual 1".33
Residuals in arcseconds: 
260511 E54  1.2-  .40+    260511 E54  2.5+  .83-    260511 E54  1.3-  .43+    

Ephemerides (geocentric):
Date (UTC) HH   RA             Dec           delta  r     elong  mag " sig PA
---- --------  ------------   ------------  ------ ------ -----  --- --------
2026 05 17 01  02 01 12.862   +22 30 17.63  .03194 .98163  21.9 30??  57d 113
2026 05 17 02  02 01 15.916   +22 30 38.10  .03219 .98141  21.9 30??  57d 113
2026 05 17 03  02 01 18.930   +22 30 58.22  .03245 .98119  21.9 30??  57d 115
2026 05 17 04  02 01 21.905   +22 31 18.02  .03270 .98097  22.0 30??  57d 115
2026 05 17 05  02 01 24.841   +22 31 37.49  .03296 .98075  22.0 30??  57d 115
2026 05 17 06  02 01 27.739   +22 31 56.66  .03322 .98052  22.0 30??  57d 115
2026 05 17 07  02 01 30.601   +22 32 15.51  .03347 .98030  22.0 30??  57d 115
2026 05 17 08  02 01 33.427   +22 32 34.07  .03373 .98008  22.1 30??  57d 115
2026 05 17 09  02 01 36.218   +22 32 52.33  .03398 .97986  22.1 30??  57d 116
2026 05 17 10  02 01 38.975   +22 33 10.31  .03424 .97964  22.1 30??  57d 116
2026 05 17 11  02 01 41.698   +22 33 28.01  .03450 .97942  22.1 30??  57d 116
2026 05 17 12  02 01 44.390   +22 33 45.44  .03475 .97920  22.2 30??  56d 116
2026 05 17 13  02 01 47.049   +22 34 02.59  .03501 .97897  22.2 30??  56d 116
2026 05 17 14  02 01 49.678   +22 34 19.49  .03526 .97875  22.2 30??  56d 116
2026 05 17 15  02 01 52.277   +22 34 36.12  .03552 .97853  22.2 30??  56d 116
2026 05 17 16  02 01 54.846   +22 34 52.51  .03578 .97831  22.3 30??  55d 116
2026 05 17 17  02 01 57.386   +22 35 08.65  .03603 .97809  22.3 30??  55d 116
2026 05 17 18  02 01 59.898   +22 35 24.55  .03629 .97787  22.3 30??  55d 116
2026 05 17 19  02 02 02.382   +22 35 40.22  .03654 .97765  22.3 30??  56d 115
2026 05 17 20  02 02 04.839   +22 35 55.65  .03680 .97743  22.4 30??  56d 115
2026 05 17 21  02 02 07.270   +22 36 10.86  .03706 .97721  22.4 30??  56d 114
2026 05 17 22  02 02 09.676   +22 36 25.84  .03731 .97699  22.4 30??  56d 114
2026 05 17 23  02 02 12.056   +22 36 40.61  .03757 .97677  22.4 30??  57d 114
2026 05 18 00  02 02 14.412   +22 36 55.17  .03783 .97655  22.5 30??  57d 114
2026 05 18 01  02 02 16.744   +22 37 09.52  .03808 .97633  22.5 30??  57d 114
2026 05 18 02  02 02 19.052   +22 37 23.66  .03834 .97611  22.5 30??  57d 113
2026 05 18 03  02 02 21.337   +22 37 37.60  .03860 .97589  22.6 30??  57d 113
2026 05 18 04  02 02 23.600   +22 37 51.35  .03885 .97567  22.6 30??  57d 113
2026 05 18 05  02 02 25.841   +22 38 04.90  .03911 .97545  22.6 30??  57d 113
2026 05 18 06  02 02 28.060   +22 38 18.27  .03936 .97524  22.6 30??  57d 113
2026 05 18 07  02 02 30.259   +22 38 31.45  .03962 .97502  22.7 30??  57d 113
2026 05 18 08  02 02 32.437   +22 38 44.45  .03988 .97480  22.7 30??  57d 113
2026 05 18 09  02 02 34.594   +22 38 57.27  .04013 .97458  22.7 30??  57d 113
2026 05 18 10  02 02 36.732   +22 39 09.91  .04039 .97436  22.8 30??  57d 112
2026 05 18 11  02 02 38.851   +22 39 22.39  .04065 .97414  22.8 30??  57d 112
2026 05 18 12  02 02 40.951   +22 39 34.69  .04090 .97392  22.8 30??  57d 112
2026 05 18 13  02 02 43.033   +22 39 46.83  .04116 .97371  22.8 30??  57d 112
2026 05 18 14  02 02 45.096   +22 39 58.81  .04142 .97349  22.9 30??  57d 112
2026 05 18 15  02 02 47.142   +22 40 10.63  .04167 .97327  22.9 30??  57d 114
2026 05 18 16  02 02 49.171   +22 40 22.29  .04193 .97305  22.9 30??  57d 114
2026 05 18 17  02 02 51.182   +22 40 33.79  .04219 .97283  23.0 30??  57d 114
2026 05 18 18  02 02 53.178   +22 40 45.15  .04244 .97262  23.0 30??  57d 114
2026 05 18 19  02 02 55.157   +22 40 56.36  .04270 .97240  23.0 30??  57d 114
2026 05 18 20  02 02 57.120   +22 41 07.42  .04296 .97218  23.0 31??  57d 114
2026 05 18 21  02 02 59.067   +22 41 18.34  .04322 .97196  23.1 31??  57d 114
2026 05 18 22  02 03 01.000   +22 41 29.12  .04347 .97175  23.1 31??  57d 114
2026 05 18 23  02 03 02.917   +22 41 39.76  .04373 .97153  23.1 31??  57d 114
2026 05 19 00  02 03 04.820   +22 41 50.27  .04399 .97131  23.2 31??  57d 114